Regional Weather Roundup
Issued by NWS

Home | Current Version | Previous Version | Text Only | Print | Product List | Glossary On
Versions: 1 2 3 4 5 6 7 8 9 10 11 12 13 14 15 16 17 18 19 20 21 22 23 24 25 26 27 28 29 30 31 32 33 34 35 36 37 38 39 40 41 42 43 44 45 46 47 48 49 50
551
ASHW40 PHFO 260843
RWRHI

WEATHER ROUNDUP FOR HAWAII
NATIONAL WEATHER SERVICE HONOLULU HI
1000 PM HST TUE JUL 25 2017

THIS IS AN AUTOMATED REPORT THAT HAS NOT BEEN QUALITY CONTROLLED.

NOTE..."FAIR" INDICATES FEW OR NO CLOUDS BELOW 12,000 FEET WITH NO
SIGNIFICANT WEATHER AND/OR OBSTRUCTIONS TO VISIBILITY.

* - THESE SITES REPORT LIMITED FIELDS
# - BUOY DATA PROVIDED BY PACIFIC ISLANDS OCEAN OBSERVING SYSTEM.

HIZ001>004-260900-
KAUAI-NIIHAU-

CITY           SKY/WX    TMP DP  RH WIND       PRES   REMARKS
LIHUE APT      CLOUDY    80  74  81 E18       30.08R
PORT ALLEN*      N/A     79 N/A N/A NE16G22     N/A
POIPU*           N/A     79 N/A N/A NE9G18      N/A
PRINCEVILLE*     N/A     75 N/A N/A SE5         N/A
KOKOLE POINT*  NOT AVBL
MOLOAA DAIRY*    N/A     79  73  83 E7G13       N/A
WAIMEA HTS*      N/A     79  68  69 E10G18      N/A
PUU OPAE*        N/A     70  68  94 NE1         N/A
PUU LUA*       NOT AVBL
MAKAHA RIDGE*    N/A     72  64  78 S2G8        N/A
$$

HIZ005>011-260900-
OAHU-

CITY           SKY/WX    TMP DP  RH WIND       PRES   REMARKS
HONOLULU       MOCLDY    79  69  71 NE15      30.06R
KALAELOA       MOCLDY    80  68  66 E7        30.07R
KANEOHE MCB    PTCLDY    79  72  80 E14       30.05
WHEELER FIELD  NOT AVBL
BELLOWS*         N/A    N/A N/A N/A E20         N/A
KAHUKU*          N/A    N/A N/A N/A E7G15       N/A
WHEELER*         N/A    N/A N/A N/A E3          N/A
WAIANAE HARBOR   N/A    N/A N/A N/A E8          N/A
DILLINGHAM*      N/A     90  82  79 W2          N/A  HX 111
KAHUKU TRN*      N/A     88  84  89 W8G20       N/A  HX 112
KAWAILOA*        N/A     73  70  88 E7G16       N/A
KII*             N/A     79  73  83 E15G26      N/A
MAKUA RANGE*     N/A     90  77  66 NW9G21      N/A  HX 102
OAHU FOREST NW   N/A     72  66  83 E10G23      N/A
SCHOFIELD BRK*   N/A     73  68  83 MISG        N/A
SCHOFIELD S*   NOT AVBL
WAIANAE VLY*     N/A     86  77  74 N5G16       N/A  HX  97
KUAOKALA*        N/A     75  68  78 NE13G21     N/A
HONOULIUULI*   NOT AVBL
MOKUOLOE IS*   NOT AVBL
PALEHUA*         N/A     68  66  94 NE12G22     N/A
WAIAWA PHB*    NOT AVBL
$$

HIZ012>013-260900-
MOLOKAI-

CITY           SKY/WX    TMP DP  RH WIND       PRES   REMARKS
MOLOKAI AIRPT  CLEAR     78  68  71 E8        30.06R
KALAUPAPA      NOT AVBL
MAKAPULAPAI*     N/A     79  72  78 E18G26      N/A
MOLOKAI 1*       N/A     68  63  83 SE3G13      N/A
PUU ALII*        N/A     62  62 100 NE3G15      N/A
$$

HIZ016-260900-
KAHOOLAWE-

CITY           SKY/WX    TMP DP  RH WIND       PRES   REMARKS
KAHOOLAWE*     NOT AVBL
HAKIOAWA*        N/A     76  69  78 MISG      30.46R
HONOKANAIA*      N/A     79  68  69 NE16G32   29.96S
KANELOA*         N/A     75  68  78 E18G37    30.09R
KEALIALALO*    NOT AVBL
LUA MAKIKA*    NOT AVBL
$$

HIZ014>015-260900-
LANAI-

CITY           SKY/WX    TMP DP  RH WIND       PRES   REMARKS
LANAI CITY     FAIR      72  66  83 N8        30.11R
LANAI 1*         N/A     73  68  83 NE12G18     N/A
$$

HIZ017>028-260900-
MAUI-

CITY           SKY/WX    TMP DP  RH WIND       PRES   REMARKS
KAHULUI        PTCLDY    79  66  64 E8        30.02R
KAPALUA-W MAUI NOT AVBL
HANA AIRPORT   LGT RAIN  75  73  94 S3        30.11R
HANA*          NOT AVBL
HALEAKALA SUMM   N/A     48  27  43 E20G32      N/A
MAALAEA BAY*     N/A     79 N/A N/A N17G29      N/A
HALEAKALA*     NOT AVBL
KAUPO GAP*     NOT AVBL
KULA 1*          N/A    N/A N/A N/A VRB3G16     N/A
$$

HIZ023>026-260900-
BIG ISLAND OF HAWAII COAST AND LOWER SLOPES-

CITY           SKY/WX    TMP DP  RH WIND       PRES   REMARKS
KAILUA KONA    CLEAR     80  64  58 NE16      29.99R
HILO           MOCLDY    76  70  82 SW6       30.08R
HONOKAA*         N/A     72 N/A N/A VRB1        N/A
KAWAIHAE MWT*    N/A     81 N/A N/A N3          N/A
KAWAIHAE*        N/A     81 N/A N/A NE1       30.00S
SOUTH POINT*     N/A     73 N/A N/A VRB20G29    N/A
UPOLU AIRPORT* NOT AVBL
KAMUELA*       NOT AVBL
HAKALAU*         N/A     53  35  49 SW5         N/A
KALOKO-HONOKO*   N/A     81  70  69 E3        29.99R
PALI 2*          N/A     66  59  77 S16G25      N/A
KEALAKOMO*       N/A     79  68  69 NE14        N/A
KAUPULEHU*       N/A     72  64  78 S6          N/A
KAPAPALA*        N/A     65  65 100 VRB2        N/A
LOWER KAHUKU*    N/A     63  63 100 VRB3G14     N/A
PUHE CS*         N/A     81  72  74 NW1         N/A
PUHO CS*         N/A     80  69  68 N3          N/A
PTA KEAMUKU*   NOT AVBL
WAIKOLOA*        N/A     75  63  64 E13G21      N/A
$$

HIZ027>028-260900-
BIG ISLAND OF HAWAII INTERIOR AND SUMMMITS-

CITY           SKY/WX    TMP DP  RH WIND       PRES   REMARKS
BRADSHAW FIELD NOT AVBL
MK VISITOR CEN   N/A     52  28  40 NE10        N/A
MAUNA KEA*       N/A     34   5  29 NE18        N/A  WCI  23
MAUNA LOA*       N/A     45   7  21 MISG        N/A
MAUNA LOA 1*   NOT AVBL
PTA KIPUKA*      N/A     59  45  58 E3G10       N/A
PTA RANGE 17*    N/A     79  43  27 SE14G21     N/A
PTA WEST*        N/A     77  75  94 E2          N/A
NENE CABIN*      N/A    N/A N/A N/A NE7G14      N/A
AHUMOA*          N/A     58  38  47 E3          N/A
PTA PORTABLE*  NOT AVBL
PUU MALI*        N/A    N/A N/A N/A SE14G22     N/A
$$

HIC003-260900-
NORTHWEST ISLANDS-

CITY           SKY/WX    TMP DP  RH WIND       PRES   REMARKS
MIDWAY ISLAND  MOCLDY    79  72  78 SE14      30.04R
MIDWAY NOS*      N/A     79 N/A N/A MISG      30.04R
FRENCH FRIGATE NOT AVBL
$$

PHZ110>124-180-260900-
BUOY REPORTS

STATION/POSITION TIME  TEMP    WIND        PRES    WAVE   SWELL
                       AIR SEA DIR/SP/G            HT/PER HT/DIR
                 (UTC) (F)     (DEG/KT/KT) (MB)    (FT/S) (FT/D)
BUOY 51001       0820   80 81   80/ 17/ 21 1019.4
BUOY 51101       0750   80 81   80/ 16/ 19 1019.3R   7/ 8   5/ 90
BUOY 51100       NOT AVBL
BUOY 51002       0820   80 80   80/ 17/ 21 1015.4
BUOY 51003       0750   81 82   80/ 10/ 12 1016.0R   6/10   7/130
BUOY 51004       0750      79   70/ 19/ 25 1016.1S   8/ 9   5/ 90
WAIMEA BAY#      0802      78                N/A     4/ 8
MOKAPU POINT#    0804      80                N/A     7/ 8   2/ 80
LANAI#           NOT AVBL
BARBERS PT 2#    NOT AVBL
PAUWELA#         0809      80                N/A     7/ 8   2/ 80
HILO#            0827      80                N/A     7/ 9   2/110
KANEOHE BAY#     0825      79                N/A     6/ 8
KANEOHE BAY 2#   NOT AVBL
HANALEI#         0822      81                N/A     5/ 8
KAHULUI HARBOR   0812   79 81   50/ 14/ 19 1017.1
HONOLULU HARBOR  0812   81 81   60/  6/ 13 1018.7
PEARL HARBOR#    0800      81                N/A     3/ 6   2/160
KILO NALU        NOT AVBL
HILO HARBOR      0812   77 79  220/  3/  5 1018.3
MOKUOLOE         0736   80 82   90/  7/ 12 1018.3R
NAWILIWILI       0812   79 82   70/ 14/ 17 1018.3
WHOTS BUOY       NOT AVBL
BUOY 51028       NOT AVBL
$$

......................KEY........................................
  SKY/WX - SKY CONDITIONS/PRESENT WEATHER
  TMP    - TEMPERATURE IN FAHRENHEIT
  DWPT   - DEWPOINT IN FAHRENHEIT
  RH     - RELATIVE HUMIDITY IN PERCENT
  WIND   - DIRECTION AND SPEED /MPH FOR ISLANDS...KTS FOR BUOYS/
  PRES   - MEAN SEA LEVEL PRESSURE IN INCHES OF HG
  VSB    - VISIBILITY IN MILES
  HX     - HEAT INDEX
  WCI    - WIND CHILL INDEX
  VRB    - VARIABLE WIND DIRECTION
  N/A    - NOT AVAILABLE




USA.gov is the U.S. government's official web portal to all federal, state and local government web resources and services.